Other Public Products
Issued by NWS Charleston, SC

Current Version | Previous Version | Text Only | Print | Product List | Glossary Off
Versions: 1 2 3 4 5 6 7 8 9 10 11 12 13 14 15 16 17 18 19 20 21 22 23 24 25 26 27 28 29 30 31 32 33 34 35 36 37 38 39 40 41 42 43 44 45 46 47 48 49 50
000 FPUS82 KCHS 242327 OPUCHS TEST...KCHS/KSAV Gateway Observations...TEST National Weather Service Charleston SC 700 PM EDT MON JUL 24 2017 NOTE: "fair" indicates few or no clouds below 12,000 feet with no significant weather and/or obstructions to visibility. SCZ050-WAZ558-NCZ071-TXZ119-213-PAZ071-DCZ001-FLZ074-172-MI076- NYZ176-178-MAZ016-IL014-TNZ027-NJZ106-GAZ044-MD014-250000- ...Gateway Observations for Charleston International... CITY SKY/WX TMP DP RH WIND PRES REMARKS Chas Airport PTSUNNY 83 76 79 SW9 29.97R HX 91 Seattle FAIR 80 53 39 N7 29.97F Charlotte PTSUNNY 89 68 49 NW3 29.93S HX 93 Dallas DFW FAIR 92 74 55 SE10 29.92S HX 101 Dallas Love FAIR 91 72 53 SE6 29.93S HX 98 Philladelphia PTSUNNY 87 67 51 S12 29.79F HX 90 Wash National PTSUNNY 85 76 74 S7 29.81F HX 94 Baltimore FAIR 82 71 69 SW8 29.81R Miami PTSUNNY 89 76 65 E8 30.04S HX 100 Detroit PTSUNNY 74 53 48 N9 30.03R Newark PTSUNNY 71 60 68 E7 29.86R Laguardia CLOUDY 68 60 75 E13 29.87R J F K PTSUNNY 69 61 75 NE12 29.88R Boston Logan LGT RAIN 59 58 96 N17 29.89S FOG Ft. Lauderdale PTSUNNY 87 77 72 SE10 30.03F HX 99 Chicago O`Hare FAIR 73 57 57 NE10 30.06R Chicago Midway FAIR 72 59 63 NE14 30.06R Houston Bush PTSUNNY 94 68 42 S7 29.95R HX 98 Houston Hobby CLOUDY 93 72 50 S12 29.96R HX 101 Nashville CLOUDY 90 72 55 E5 29.95R HX 97 Atlanta CLOUDY 77 71 82 W5 29.99F $$ GAZ044-118-TXZ119-213-NCZ071-DCZ001-MDZ014-506-PAZ021-071-NJZ106- NYZ176-178-MAZ106-OHZ011-021-055-MIZ076-KYZ091-ILZ014-INZ047- MNZ060-ONZ431-250000- ...Gateway Observations for Savannah International... CITY SKY/WX TMP DP RH WIND PRES REMARKS Savannah Arpt PTSUNNY 86 73 65 S8 29.96R HX 93 Atlanta CLOUDY 77 71 82 W5 29.99F Charlotte PTSUNNY 89 68 49 NW3 29.93S HX 93 Dallas DFW FAIR 92 74 55 SE10 29.92S HX 101 Houston Bush PTSUNNY 94 68 42 S7 29.95R HX 98 Wash National PTSUNNY 85 76 74 S7 29.81F HX 94 Wash Dulles PTSUNNY 83 74 74 S6 29.82S Baltimore FAIR 82 71 69 SW8 29.81R Philadelphia PTSUNNY 87 67 51 S12 29.79F HX 90 Newark PTSUNNY 71 60 68 E7 29.86R Laguardia CLOUDY 68 60 75 E13 29.87R J F K PTSUNNY 69 61 75 NE12 29.88R Boston LGT RAIN 59 58 96 N17 29.89S FOG Pittsburg PTSUNNY 73 59 61 NW17 29.95R Akron CLOUDY 68 57 68 N13G20 30.00R Cleveland PTSUNNY 72 58 61 N12G21 30.02R Cincinnati FAIR 82 68 62 N10 29.97R Columbus FAIR 75 61 62 N15 29.98R Detroit PTSUNNY 74 53 48 N9 30.03R Chicago O`Hare FAIR 73 57 57 NE10 30.06R Minneapolis PTSUNNY 77 59 53 S9 30.03S Indianapolis FAIR 80 63 55 N13 29.98S Toronto Canada CLOUDY 64 57 77 N16 29.88R $$

USA.gov is the U.S. government's official web portal to all federal, state and local government web resources and services.